| time (UTC) | temp F | wind direction | speed knots | gust knots | rain 1hr in | rain 24hr in | rain mn in | humidity % | barometer mb |
| 20260503045406 | 62 | 195 | 0.0 | 2.6 | 0.00 | 0.00 | 0.00 | 64 | 1011.8 |
| 20260503044406 | 62 | 209 | 1.7 | 2.6 | 0.00 | 0.00 | 0.00 | 64 | 1011.8 |
| 20260503043907 | 62 | 207 | 2.6 | 4.3 | 0.00 | 0.00 | 0.00 | 64 | 1011.7 |
| 20260503042406 | 64 | 164 | 1.7 | 4.3 | 0.00 | 0.00 | 0.00 | 62 | 1011.6 |
| 20260503041906 | 64 | 204 | 2.6 | 4.3 | 0.00 | 0.00 | 0.00 | 62 | 1011.5 |
| 20260503040906 | 65 | 196 | 2.6 | 2.6 | 0.00 | 0.00 | 0.00 | 59 | 1011.4 |
| 20260503035906 | 66 | 148 | 1.7 | 4.3 | 0.00 | 0.00 | 0.00 | 59 | 1011.3 |
| 20260503035406 | 66 | 192 | 4.3 | 5.2 | 0.00 | 0.00 | 0.00 | 59 | 1011.2 |
| 20260503033906 | 67 | 201 | 2.6 | 4.3 | 0.00 | 0.00 | 0.00 | 57 | 1010.9 |
| 20260503033407 | 67 | 152 | 2.6 | 5.2 | 0.00 | 0.00 | 0.00 | 55 | 1010.8 |
| 20260503032906 | 68 | 159 | 2.6 | 5.2 | 0.00 | 0.00 | 0.00 | 56 | 1010.7 |
| 20260503032407 | 69 | 211 | 1.7 | 2.6 | 0.00 | 0.00 | 0.00 | 56 | 1010.6 |
| 20260503031906 | 69 | 148 | 1.7 | 2.6 | 0.00 | 0.00 | 0.00 | 54 | 1010.5 |
| 20260503031406 | 70 | 186 | 0.0 | 2.6 | 0.00 | 0.00 | 0.00 | 54 | 1010.5 |
| 20260503030906 | 70 | 186 | 1.7 | 2.6 | 0.00 | 0.00 | 0.00 | 52 | 1010.4 |
| 20260503030406 | 70 | 197 | 1.7 | 2.6 | 0.00 | 0.00 | 0.00 | 52 | 1010.3 |
| 20260503025906 | 71 | 203 | 2.6 | 4.3 | 0.00 | 0.00 | 0.00 | 51 | 1010.2 |
| 20260503024905 | 72 | 160 | 1.7 | 2.6 | 0.00 | 0.00 | 0.00 | 50 | 1010.2 |
| 20260503023906 | 73 | 212 | 4.3 | 4.3 | 0.00 | 0.00 | 0.00 | 49 | 1010.1 |
| 20260503023406 | 74 | 205 | 4.3 | 10.4 | 0.00 | 0.00 | 0.00 | 47 | 1010.1 |
| 20260503022906 | 74 | 159 | 3.5 | 6.1 | 0.00 | 0.00 | 0.00 | 46 | 1010.1 |
| 20260503021905 | 75 | 191 | 4.3 | 6.1 | 0.00 | 0.00 | 0.00 | 42 | 1010.0 |
| 20260503021406 | 76 | 175 | 2.6 | 5.2 | 0.00 | 0.00 | 0.00 | 40 | 1009.9 |
| 20260503020906 | 77 | 190 | 3.5 | 5.2 | 0.00 | 0.00 | 0.00 | 39 | 1010.0 |
| 20260503020406 | 78 | 152 | 3.5 | 7.8 | 0.00 | 0.00 | 0.00 | 39 | 1009.9 |
| 20260503015905 | 79 | 172 | 3.5 | 5.2 | 0.00 | 0.00 | 0.00 | 37 | 1009.9 |
| 20260503015406 | 80 | 148 | 1.7 | 2.6 | 0.00 | 0.00 | 0.00 | 38 | 1009.8 |
| 20260503014905 | 81 | 60 | 0.0 | 1.7 | 0.00 | 0.00 | 0.00 | 38 | 1009.8 |
| 20260503014405 | 82 | 149 | 0.0 | 0.9 | 0.00 | 0.00 | 0.00 | 37 | 1009.8 |
| 20260503013906 | 82 | 149 | 0.9 | 2.6 | 0.00 | 0.00 | 0.00 | 35 | 1009.8 |
| 20260503013405 | 83 | 225 | 0.9 | 1.7 | 0.00 | 0.00 | 0.00 | 32 | 1009.8 |
| 20260503012905 | 83 | 225 | 0.9 | 2.6 | 0.00 | 0.00 | 0.00 | 32 | 1009.8 |
| 20260503012406 | 84 | 190 | 1.7 | 2.6 | 0.00 | 0.00 | 0.00 | 32 | 1009.9 |
| 20260503011905 | 84 | 205 | 3.5 | 4.3 | 0.00 | 0.00 | 0.00 | 27 | 1009.8 |
| 20260503011406 | 85 | 211 | 4.3 | 5.2 | 0.00 | 0.00 | 0.00 | 28 | 1009.8 |
| 20260503010906 | 86 | 204 | 4.3 | 5.2 | 0.00 | 0.00 | 0.00 | 26 | 1009.9 |
| 20260503010406 | 87 | 221 | 3.5 | 4.3 | 0.00 | 0.00 | 0.00 | 26 | 1009.9 |
| 20260503005906 | 87 | 208 | 2.6 | 5.2 | 0.00 | 0.00 | 0.00 | 28 | 1009.9 |
| 20260503005405 | 87 | 238 | 1.7 | 2.6 | 0.00 | 0.00 | 0.00 | 23 | 1009.9 |
| 20260503004906 | 87 | 231 | 2.6 | 4.3 | 0.00 | 0.00 | 0.00 | 26 | 1009.9 |
| 20260503004406 | 88 | 208 | 2.6 | 4.3 | 0.00 | 0.00 | 0.00 | 23 | 1010.0 |
| 20260503003906 | 88 | 230 | 2.6 | 5.2 | 0.00 | 0.00 | 0.00 | 23 | 1010.0 |
| 20260503003405 | 89 | 238 | 2.6 | 2.6 | 0.00 | 0.00 | 0.00 | 21 | 1010.1 |
| 20260503002905 | 89 | 296 | 0.9 | 2.6 | 0.00 | 0.00 | 0.00 | 20 | 1010.1 |
| 20260503002405 | 89 | 277 | 0.9 | 2.6 | 0.00 | 0.00 | 0.00 | 21 | 1010.1 |
| 20260503001905 | 88 | 19 | 0.9 | 1.7 | 0.00 | 0.00 | 0.00 | 22 | 1010.1 |
| 20260503001406 | 88 | 329 | 0.9 | 2.6 | 0.00 | 0.00 | 0.00 | 22 | 1010.2 |
| 20260503000905 | 89 | 349 | 1.7 | 2.6 | 0.00 | 0.00 | 0.00 | 21 | 1010.1 |
| 20260503000407 | 89 | 256 | 0.9 | 2.6 | 0.00 | 0.00 | 0.00 | 22 | 1010.1 |
| 20260502235906 | 88 | 77 | 1.7 | 2.6 | 0.00 | 0.00 | 0.00 | 22 | 1010.1 |
| 20260502235405 | 89 | 341 | 1.7 | 2.6 | 0.00 | 0.00 | 0.00 | 21 | 1010.2 |
| 20260502234906 | 89 | 309 | 1.7 | 4.3 | 0.00 | 0.00 | 0.00 | 21 | 1010.2 |
| 20260502234408 | 89 | 0 | 0.0 | 2.6 | 0.00 | 0.00 | 0.00 | 21 | 1010.2 |
| 20260502233905 | 90 | 5 | 2.6 | 5.2 | 0.00 | 0.00 | 0.00 | 21 | 1010.3 |
| 20260502233405 | 90 | 297 | 0.9 | 2.6 | 0.00 | 0.00 | 0.00 | 22 | 1010.3 |
| 20260502232906 | 89 | 248 | 0.9 | 4.3 | 0.00 | 0.00 | 0.00 | 22 | 1010.3 |
| 20260502232405 | 89 | 80 | 0.9 | 2.6 | 0.00 | 0.00 | 0.00 | 21 | 1010.4 |
| 20260502231905 | 88 | 36 | 1.7 | 2.6 | 0.00 | 0.00 | 0.00 | 22 | 1010.5 |
| 20260502231405 | 88 | 129 | 0.0 | 2.6 | 0.00 | 0.00 | 0.00 | 22 | 1010.6 |
| 20260502230906 | 88 | 38 | 2.6 | 6.1 | 0.00 | 0.00 | 0.00 | 22 | 1010.6 |
| 20260502230405 | 88 | 296 | 1.7 | 2.6 | 0.00 | 0.00 | 0.00 | 21 | 1010.6 |
| 20260502225906 | 87 | 359 | 0.9 | 2.6 | 0.00 | 0.00 | 0.00 | 23 | 1010.7 |
| 20260502225405 | 87 | 329 | 1.7 | 6.1 | 0.00 | 0.00 | 0.00 | 23 | 1010.8 |
| 20260502224906 | 86 | 5 | 0.0 | 2.6 | 0.00 | 0.00 | 0.00 | 22 | 1010.8 |
| 20260502224405 | 86 | 4 | 2.6 | 4.3 | 0.00 | 0.00 | 0.00 | 22 | 1010.9 |
| 20260502223905 | 87 | 10 | 1.7 | 2.6 | 0.00 | 0.00 | 0.00 | 23 | 1010.9 |
| 20260502223405 | 88 | 348 | 1.7 | 4.3 | 0.00 | 0.00 | 0.00 | 23 | 1011.0 |
| 20260502222405 | 87 | 18 | 1.7 | 2.6 | 0.00 | 0.00 | 0.00 | 23 | 1011.2 |
| 20260502221405 | 86 | 7 | 1.7 | 2.6 | 0.00 | 0.00 | 0.00 | 24 | 1011.4 |
| 20260502220906 | 86 | 293 | 0.9 | 2.6 | 0.00 | 0.00 | 0.00 | 25 | 1011.4 |
| 20260502215905 | 86 | 327 | 1.7 | 5.2 | 0.00 | 0.00 | 0.00 | 24 | 1011.6 |
| 20260502215406 | 88 | 343 | 2.6 | 5.2 | 0.00 | 0.00 | 0.00 | 22 | 1011.7 |
| 20260502214906 | 88 | 307 | 1.7 | 2.6 | 0.00 | 0.00 | 0.00 | 21 | 1011.8 |
| 20260502214406 | 88 | 192 | 0.9 | 2.6 | 0.00 | 0.00 | 0.00 | 25 | 1011.8 |
| 20260502213906 | 87 | 127 | 1.7 | 2.6 | 0.00 | 0.00 | 0.00 | 26 | 1011.8 |
| 20260502213406 | 86 | 20 | 2.6 | 4.3 | 0.00 | 0.00 | 0.00 | 25 | 1011.9 |
| 20260502212906 | 86 | 126 | 0.0 | 1.7 | 0.00 | 0.00 | 0.00 | 29 | 1011.9 |
| 20260502211906 | 85 | 37 | 0.9 | 2.6 | 0.00 | 0.00 | 0.00 | 31 | 1012.1 |
| 20260502211406 | 85 | 50 | 0.9 | 2.6 | 0.00 | 0.00 | 0.00 | 32 | 1012.1 |
| 20260502210906 | 84 | 19 | 1.7 | 2.6 | 0.00 | 0.00 | 0.00 | 33 | 1012.2 |
| 20260502210406 | 84 | 349 | 1.7 | 2.6 | 0.00 | 0.00 | 0.00 | 33 | 1012.3 |
| 20260502205907 | 84 | 68 | 1.7 | 2.6 | 0.00 | 0.00 | 0.00 | 35 | 1012.3 |
| 20260502205406 | 83 | 275 | 1.7 | 5.2 | 0.00 | 0.00 | 0.00 | 37 | 1012.4 |
| 20260502204907 | 82 | 260 | 0.9 | 4.3 | 0.00 | 0.00 | 0.00 | 38 | 1012.4 |
| 20260502204406 | 82 | 314 | 1.7 | 4.3 | 0.00 | 0.00 | 0.00 | 39 | 1012.5 |
| 20260502203907 | 81 | 220 | 3.5 | 6.1 | 0.00 | 0.00 | 0.00 | 40 | 1012.5 |
| 20260502203407 | 81 | 200 | 4.3 | 7.0 | 0.00 | 0.00 | 0.00 | 40 | 1012.6 |
| 20260502202907 | 81 | 187 | 2.6 | 6.1 | 0.00 | 0.00 | 0.00 | 43 | 1012.6 |
| 20260502202406 | 82 | 201 | 1.7 | 4.3 | 0.00 | 0.00 | 0.00 | 42 | 1012.7 |
| 20260502201907 | 81 | 201 | 2.6 | 4.3 | 0.00 | 0.00 | 0.00 | 41 | 1012.8 |
| 20260502201406 | 81 | 212 | 1.7 | 2.6 | 0.00 | 0.00 | 0.00 | 43 | 1012.8 |
| 20260502200906 | 81 | 237 | 1.7 | 2.6 | 0.00 | 0.00 | 0.00 | 42 | 1012.8 |
| 20260502200407 | 80 | 224 | 2.6 | 6.1 | 0.00 | 0.00 | 0.00 | 44 | 1012.9 |
| 20260502195906 | 79 | 262 | 0.9 | 2.6 | 0.00 | 0.00 | 0.00 | 45 | 1013.0 |
| 20260502195406 | 79 | 235 | 0.9 | 2.6 | 0.00 | 0.00 | 0.00 | 45 | 1013.0 |
| 20260502193907 | 78 | 95 | 0.9 | 1.7 | 0.00 | 0.00 | 0.00 | 46 | 1013.2 |
| 20260502193406 | 78 | 105 | 0.9 | 1.7 | 0.00 | 0.00 | 0.00 | 45 | 1013.3 |
| 20260502192907 | 78 | 33 | 1.7 | 2.6 | 0.00 | 0.00 | 0.00 | 45 | 1013.4 |
| 20260502192407 | 78 | 60 | 0.9 | 2.6 | 0.00 | 0.00 | 0.00 | 45 | 1013.4 |
| 20260502191906 | 78 | 106 | 1.7 | 2.6 | 0.00 | 0.00 | 0.00 | 46 | 1013.4 |
| 20260502191406 | 77 | 180 | 2.6 | 6.1 | 0.00 | 0.00 | 0.00 | 46 | 1013.5 |
| 20260502190907 | 76 | 178 | 1.7 | 2.6 | 0.00 | 0.00 | 0.00 | 47 | 1013.5 |
| 20260502190406 | 76 | 258 | 1.7 | 2.6 | 0.00 | 0.00 | 0.00 | 46 | 1013.7 |
| 20260502185906 | 76 | 198 | 0.9 | 4.3 | 0.00 | 0.00 | 0.00 | 45 | 1013.7 |
| 20260502185407 | 76 | 211 | 3.5 | 5.2 | 0.00 | 0.00 | 0.00 | 45 | 1013.8 |
| 20260502184907 | 76 | 198 | 0.9 | 4.3 | 0.00 | 0.00 | 0.00 | 45 | 1013.8 |
| 20260502184406 | 76 | 159 | 0.9 | 5.2 | 0.00 | 0.00 | 0.00 | 44 | 1013.9 |
| 20260502183906 | 76 | 100 | 3.5 | 5.2 | 0.00 | 0.00 | 0.00 | 45 | 1014.0 |
| 20260502183406 | 75 | 110 | 1.7 | 5.2 | 0.00 | 0.00 | 0.00 | 46 | 1014.1 |
| 20260502182406 | 74 | 320 | 0.9 | 1.7 | 0.00 | 0.00 | 0.00 | 46 | 1014.2 |
| 20260502181906 | 74 | 321 | 1.7 | 2.6 | 0.00 | 0.00 | 0.00 | 45 | 1014.3 |
| 20260502181407 | 74 | 92 | 1.7 | 5.2 | 0.00 | 0.00 | 0.00 | 46 | 1014.3 |
| 20260502180906 | 74 | 164 | 0.9 | 2.6 | 0.00 | 0.00 | 0.00 | 46 | 1014.4 |
| 20260502180406 | 73 | 122 | 1.7 | 4.3 | 0.00 | 0.00 | 0.00 | 46 | 1014.4 |
| 20260502170406 | 69 | 149 | 2.6 | 2.6 | 0.00 | 0.00 | 0.00 | 50 | 1014.9 |
| 20260502163906 | 67 | 151 | 0.9 | 4.3 | 0.00 | 0.00 | 0.00 | 53 | 1015.2 |
| 20260502163405 | 66 | 120 | 2.6 | 5.2 | 0.00 | 0.00 | 0.00 | 53 | 1015.2 |
| 20260502162906 | 65 | 174 | 0.9 | 2.6 | 0.00 | 0.00 | 0.00 | 54 | 1015.3 |
| 20260502162405 | 65 | 141 | 1.7 | 6.1 | 0.00 | 0.00 | 0.00 | 54 | 1015.3 |
| 20260502161905 | 64 | 123 | 3.5 | 6.1 | 0.00 | 0.00 | 0.00 | 56 | 1015.3 |
| 20260502161406 | 65 | 165 | 3.5 | 5.2 | 0.00 | 0.00 | 0.00 | 55 | 1015.4 |
| 20260502160905 | 64 | 119 | 1.7 | 2.6 | 0.00 | 0.00 | 0.00 | 58 | 1015.4 |
| 20260502160406 | 64 | 147 | 2.6 | 4.3 | 0.00 | 0.00 | 0.00 | 56 | 1015.5 |
| 20260502151906 | 57 | 127 | 1.7 | 2.6 | 0.00 | 0.00 | 0.00 | 70 | 1015.6 |
| 20260502151405 | 56 | 142 | 0.9 | 2.6 | 0.00 | 0.00 | 0.00 | 73 | 1015.6 |
| 20260502150906 | 54 | 115 | 1.7 | 2.6 | 0.00 | 0.00 | 0.00 | 74 | 1015.6 |
| 20260502150406 | 53 | 122 | 0.9 | 2.6 | 0.00 | 0.00 | 0.00 | 76 | 1015.8 |
| 20260502123406 | 46 | 175 | 0.9 | 1.7 | 0.00 | 0.00 | 0.00 | 83 | 1015.1 |
| 20260502122906 | 46 | 176 | 1.7 | 1.7 | 0.00 | 0.00 | 0.00 | 83 | 1015.0 |
| 20260502122407 | 47 | 176 | 0.0 | 0.0 | 0.00 | 0.00 | 0.00 | 82 | 1015.0 |
| 20260502121907 | 47 | 175 | 0.9 | 2.6 | 0.00 | 0.00 | 0.00 | 82 | 1015.0 |
| 20260502121406 | 47 | 190 | 1.7 | 2.6 | 0.00 | 0.00 | 0.00 | 83 | 1014.9 |
| 20260502120407 | 46 | 159 | 0.9 | 2.6 | 0.00 | 0.00 | 0.00 | 82 | 1014.9 |
| 20260502115906 | 46 | 175 | 1.7 | 2.6 | 0.00 | 0.00 | 0.00 | 83 | 1014.9 |
| 20260502115406 | 47 | 145 | 0.0 | 1.7 | 0.00 | 0.00 | 0.00 | 83 | 1015.1 |
| 20260502114907 | 47 | 145 | 1.7 | 2.6 | 0.00 | 0.00 | 0.00 | 82 | 1015.1 |
| 20260502114406 | 47 | 203 | 0.0 | 1.7 | 0.00 | 0.00 | 0.00 | 83 | 1015.1 |
| 20260502113906 | 47 | 203 | 1.7 | 2.6 | 0.00 | 0.00 | 0.00 | 82 | 1015.1 |
| 20260502113407 | 47 | 168 | 0.0 | 1.7 | 0.00 | 0.00 | 0.00 | 82 | 1015.1 |
| 20260502112906 | 47 | 164 | 0.9 | 2.6 | 0.00 | 0.00 | 0.00 | 82 | 1015.1 |
| 20260502112407 | 47 | 191 | 3.5 | 5.2 | 0.00 | 0.00 | 0.00 | 82 | 1015.1 |
| 20260502111907 | 47 | 174 | 4.3 | 7.0 | 0.00 | 0.00 | 0.00 | 82 | 1015.0 |
| 20260502110407 | 48 | 167 | 1.7 | 2.6 | 0.00 | 0.00 | 0.00 | 81 | 1015.0 |
| 20260502105907 | 48 | 197 | 0.9 | 2.6 | 0.00 | 0.00 | 0.00 | 80 | 1015.1 |
| 20260502104907 | 48 | 181 | 2.6 | 7.8 | 0.00 | 0.00 | 0.00 | 80 | 1015.0 |
| 20260502104407 | 48 | 166 | 2.6 | 5.2 | 0.00 | 0.00 | 0.00 | 80 | 1015.0 |
| 20260502103406 | 48 | 170 | 4.3 | 5.2 | 0.00 | 0.00 | 0.00 | 80 | 1015.0 |
| 20260502102907 | 48 | 168 | 4.3 | 6.1 | 0.00 | 0.00 | 0.00 | 80 | 1015.0 |
| 20260502102406 | 48 | 197 | 4.3 | 5.2 | 0.00 | 0.00 | 0.00 | 81 | 1015.0 |
| 20260502101907 | 48 | 165 | 4.3 | 5.2 | 0.00 | 0.00 | 0.00 | 81 | 1015.0 |
| 20260502100907 | 48 | 173 | 5.2 | 7.8 | 0.00 | 0.00 | 0.00 | 80 | 1014.9 |
| 20260502100406 | 49 | 165 | 4.3 | 6.1 | 0.00 | 0.00 | 0.00 | 80 | 1015.0 |
| 20260502091406 | 49 | 190 | 0.0 | 0.9 | 0.00 | 0.00 | 0.00 | 79 | 1014.9 |
| 20260502090406 | 50 | 190 | 0.0 | 2.6 | 0.00 | 0.00 | 0.00 | 78 | 1014.9 |
| 20260502070906 | 52 | 168 | 1.7 | 2.6 | 0.00 | 0.00 | 0.00 | 76 | 1014.6 |
| 20260502065906 | 52 | 164 | 1.7 | 4.3 | 0.00 | 0.00 | 0.00 | 76 | 1014.6 |
| 20260502065405 | 52 | 171 | 0.9 | 1.7 | 0.00 | 0.00 | 0.00 | 76 | 1014.5 |
| 20260502064906 | 53 | 171 | 0.9 | 2.6 | 0.00 | 0.00 | 0.00 | 76 | 1014.5 |
| 20260502064410 | 53 | 179 | 0.0 | 0.0 | 0.00 | 0.00 | 0.00 | 75 | 1014.4 |
| 20260502063406 | 53 | 179 | 0.0 | 0.0 | 0.00 | 0.00 | 0.00 | 75 | 1014.4 |
| 20260502062906 | 53 | 179 | 0.0 | 0.0 | 0.00 | 0.00 | 0.00 | 75 | 1014.4 |
| 20260502061905 | 54 | 179 | 0.0 | 1.7 | 0.00 | 0.00 | 0.00 | 73 | 1014.4 |
| 20260502061405 | 54 | 178 | 1.7 | 1.7 | 0.00 | 0.00 | 0.00 | 73 | 1014.3 |
| 20260502060906 | 55 | 176 | 0.9 | 2.6 | 0.00 | 0.00 | 0.00 | 73 | 1014.3 |
| 20260502055905 | 56 | 190 | 0.0 | 1.7 | 0.00 | 0.00 | 0.00 | 71 | 1014.3 |
| 20260502054406 | 57 | 198 | 0.0 | 0.9 | 0.00 | 0.00 | 0.00 | 70 | 1014.3 |
| 20260502053406 | 57 | 198 | 0.0 | 1.7 | 0.00 | 0.00 | 0.00 | 69 | 1014.2 |
| 20260502052905 | 57 | 198 | 1.7 | 2.6 | 0.00 | 0.00 | 0.00 | 68 | 1014.2 |
| 20260502051905 | 58 | 201 | 1.7 | 2.6 | 0.00 | 0.00 | 0.00 | 67 | 1014.1 |
| 20260502051406 | 58 | 186 | 0.9 | 2.6 | 0.00 | 0.00 | 0.00 | 66 | 1014.2 |